| time (UTC) | temp C | wind direction | speed KPH | gust KPH | rain 1hr cm | rain 24hr cm | rain mn cm | humidity % | barometer mb |
| 20260901231704 | 14 | 173 | 4.8 | 9.7 | 0.00 | 1.65 | 0.00 | 95 | 1013.8 |
| 20260901231204 | 14 | 181 | 3.2 | 9.7 | 0.00 | 1.65 | 0.00 | 95 | 1013.9 |
| 20260901230704 | 14 | 210 | 3.2 | 8.0 | 0.00 | 1.65 | 0.00 | 96 | 1013.9 |
| 20260901230204 | 14 | 207 | 3.2 | 8.0 | 0.00 | 1.65 | 0.00 | 95 | 1013.9 |
| 20260901225704 | 14 | 218 | 4.8 | 8.0 | 0.00 | 1.65 | 1.65 | 95 | 1013.9 |
| 20260901225203 | 14 | 176 | 4.8 | 8.0 | 0.00 | 1.65 | 1.65 | 95 | 1014.0 |
| 20260901224704 | 14 | 175 | 3.2 | 8.0 | 0.00 | 1.65 | 1.65 | 95 | 1014.2 |
| 20260901224204 | 14 | 182 | 3.2 | 8.0 | 0.00 | 1.65 | 1.65 | 95 | 1014.2 |
| 20260901223703 | 14 | 179 | 1.6 | 4.8 | 0.00 | 1.65 | 1.65 | 95 | 1014.3 |
| 20260901223204 | 14 | 190 | 3.2 | 8.0 | 0.00 | 1.65 | 1.65 | 95 | 1014.2 |
| 20260901222703 | 15 | 192 | 4.8 | 9.7 | 0.00 | 1.65 | 1.65 | 95 | 1014.2 |
| 20260901221704 | 15 | 215 | 4.8 | 9.7 | 0.00 | 1.65 | 1.65 | 95 | 1014.2 |
| 20260901220704 | 15 | 213 | 4.8 | 9.7 | 0.00 | 1.65 | 1.65 | 95 | 1014.3 |
| 20260901220204 | 15 | 193 | 3.2 | 8.0 | 0.00 | 1.65 | 1.65 | 95 | 1014.3 |
| 20260901215704 | 15 | 0 | 3.2 | 4.8 | 0.00 | 1.65 | 1.65 | 95 | 1014.3 |
| 20260901215204 | 15 | 200 | 4.8 | 9.7 | 0.00 | 1.65 | 1.65 | 95 | 1014.3 |
| 20260901214703 | 15 | 200 | 4.8 | 9.7 | 0.00 | 1.65 | 1.65 | 95 | 1014.3 |
| 20260901214204 | 15 | 219 | 4.8 | 12.9 | 0.00 | 1.65 | 1.65 | 95 | 1014.3 |
| 20260901213704 | 15 | 213 | 8.0 | 14.5 | 0.00 | 1.65 | 1.65 | 94 | 1014.4 |
| 20260901213204 | 15 | 225 | 8.0 | 14.5 | 0.00 | 1.65 | 1.65 | 95 | 1014.5 |
| 20260901212704 | 15 | 220 | 8.0 | 14.5 | 0.00 | 1.65 | 1.65 | 95 | 1014.7 |
| 20260901212204 | 15 | 215 | 9.7 | 19.3 | 0.00 | 1.65 | 1.65 | 95 | 1014.7 |
| 20260901210704 | 15 | 217 | 8.0 | 14.5 | 0.00 | 1.65 | 1.65 | 95 | 1014.5 |
| 20260901210204 | 15 | 0 | 8.0 | 11.3 | 0.00 | 1.65 | 1.65 | 95 | 1014.4 |
| 20260901205203 | 15 | 244 | 6.4 | 11.3 | 0.00 | 1.65 | 1.65 | 95 | 1014.5 |
| 20260901204704 | 15 | 221 | 4.8 | 11.3 | 0.00 | 1.65 | 1.65 | 95 | 1014.5 |
| 20260901204204 | 15 | 213 | 8.0 | 12.9 | 0.00 | 1.65 | 1.65 | 95 | 1014.4 |
| 20260901203204 | 15 | 208 | 8.0 | 11.3 | 0.00 | 1.65 | 1.65 | 95 | 1014.5 |
| 20260901202703 | 15 | 222 | 8.0 | 12.9 | 0.00 | 1.65 | 1.65 | 95 | 1014.5 |
| 20260901201704 | 15 | 217 | 8.0 | 12.9 | 0.00 | 1.65 | 1.65 | 95 | 1014.5 |
| 20260901200204 | 15 | 208 | 4.8 | 9.7 | 0.00 | 1.65 | 1.65 | 95 | 1014.4 |
| 20260901195704 | 15 | 219 | 4.8 | 9.7 | 0.00 | 1.65 | 1.65 | 95 | 1014.3 |
| 20260901195203 | 15 | 223 | 8.0 | 11.3 | 0.00 | 1.65 | 1.65 | 95 | 1014.3 |
| 20260901194703 | 15 | 226 | 8.0 | 14.5 | 0.00 | 1.65 | 1.65 | 95 | 1014.3 |
| 20260901194204 | 15 | 220 | 4.8 | 9.7 | 0.00 | 1.65 | 1.65 | 95 | 1014.3 |
| 20260901193204 | 15 | 209 | 4.8 | 9.7 | 0.00 | 1.65 | 1.65 | 95 | 1014.3 |
| 20260901192204 | 15 | 213 | 4.8 | 9.7 | 0.00 | 1.65 | 1.65 | 95 | 1014.3 |
| 20260901191703 | 15 | 218 | 6.4 | 12.9 | 0.00 | 1.65 | 1.65 | 95 | 1014.3 |
| 20260901191203 | 15 | 235 | 4.8 | 9.7 | 0.00 | 1.65 | 1.65 | 95 | 1014.3 |
| 20260901190204 | 15 | 227 | 4.8 | 12.9 | 0.00 | 1.65 | 1.65 | 95 | 1014.3 |
| 20260901185704 | 15 | 233 | 8.0 | 9.7 | 0.00 | 1.70 | 1.65 | 95 | 1014.3 |
| 20260901185204 | 16 | 238 | 6.4 | 12.9 | 0.00 | 1.73 | 1.65 | 95 | 1014.3 |
| 20260901184703 | 16 | 237 | 4.8 | 11.3 | 0.00 | 1.73 | 1.65 | 95 | 1014.3 |
| 20260901184204 | 16 | 215 | 4.8 | 14.5 | 0.00 | 1.73 | 1.65 | 95 | 1014.3 |
| 20260901183703 | 16 | 220 | 8.0 | 14.5 | 0.00 | 1.73 | 1.65 | 95 | 1014.3 |
| 20260901183204 | 16 | 213 | 8.0 | 12.9 | 0.00 | 1.73 | 1.65 | 95 | 1014.3 |
| 20260901182704 | 16 | 217 | 6.4 | 12.9 | 0.00 | 1.73 | 1.65 | 95 | 1014.3 |
| 20260901182205 | 16 | 203 | 4.8 | 9.7 | 0.00 | 1.73 | 1.65 | 95 | 1014.4 |
| 20260901181204 | 16 | 236 | 4.8 | 11.3 | 0.00 | 1.73 | 1.65 | 95 | 1014.4 |
| 20260901180704 | 16 | 240 | 6.4 | 12.9 | 0.00 | 1.73 | 1.65 | 95 | 1014.4 |
| 20260901180204 | 16 | 226 | 4.8 | 9.7 | 0.00 | 1.73 | 1.65 | 95 | 1014.4 |
| 20260901175703 | 16 | 229 | 4.8 | 9.7 | 0.00 | 1.73 | 1.65 | 95 | 1014.4 |
| 20260901175204 | 16 | 204 | 4.8 | 11.3 | 0.00 | 1.73 | 1.65 | 95 | 1014.4 |
| 20260901174704 | 16 | 197 | 4.8 | 8.0 | 0.00 | 1.73 | 1.65 | 95 | 1014.5 |
| 20260901174203 | 16 | 239 | 6.4 | 9.7 | 0.00 | 1.73 | 1.65 | 95 | 1014.5 |
| 20260901173204 | 16 | 240 | 6.4 | 11.3 | 0.00 | 1.73 | 1.65 | 95 | 1014.5 |
| 20260901172704 | 16 | 228 | 4.8 | 12.9 | 0.00 | 1.73 | 1.65 | 96 | 1014.4 |
| 20260901172204 | 16 | 224 | 6.4 | 14.5 | 0.00 | 1.73 | 1.65 | 96 | 1014.4 |
| 20260901171704 | 16 | 241 | 9.7 | 19.3 | 0.00 | 1.73 | 1.65 | 96 | 1014.5 |
| 20260901171204 | 16 | 237 | 9.7 | 19.3 | 0.00 | 1.73 | 1.65 | 96 | 1014.4 |
| 20260901170203 | 16 | 243 | 9.7 | 16.1 | 0.00 | 1.73 | 1.65 | 96 | 1014.4 |
| 20260901165704 | 16 | 270 | 9.7 | 19.3 | 0.00 | 1.73 | 1.65 | 96 | 1014.4 |
| 20260901165204 | 16 | 238 | 8.0 | 19.3 | 0.00 | 1.73 | 1.65 | 96 | 1014.5 |
| 20260901163203 | 16 | 233 | 8.0 | 12.9 | 0.00 | 1.75 | 1.65 | 96 | 1014.7 |
| 20260901162703 | 16 | 232 | 9.7 | 16.1 | 0.00 | 1.75 | 1.65 | 96 | 1014.8 |
| 20260901162204 | 16 | 245 | 9.7 | 14.5 | 0.00 | 1.75 | 1.65 | 96 | 1014.7 |
| 20260901161204 | 16 | 220 | 9.7 | 16.1 | 0.00 | 1.75 | 1.65 | 96 | 1014.6 |
| 20260901160704 | 16 | 219 | 9.7 | 16.1 | 0.00 | 1.75 | 1.65 | 96 | 1014.7 |
| 20260901160204 | 16 | 207 | 8.0 | 12.9 | 0.00 | 1.75 | 1.65 | 96 | 1014.7 |
| 20260901155704 | 16 | 215 | 8.0 | 14.5 | 0.03 | 1.75 | 1.65 | 96 | 1014.6 |
| 20260901155203 | 16 | 216 | 8.0 | 19.3 | 0.08 | 1.75 | 1.65 | 96 | 1014.7 |
| 20260901154205 | 16 | 193 | 8.0 | 14.5 | 0.41 | 1.75 | 1.65 | 96 | 1014.6 |
| 20260901153704 | 16 | 181 | 6.4 | 11.3 | 0.56 | 1.75 | 1.65 | 96 | 1014.7 |
| 20260901153204 | 15 | 223 | 6.4 | 14.5 | 0.64 | 1.75 | 1.65 | 96 | 1014.7 |
| 20260901152704 | 15 | 240 | 4.8 | 11.3 | 0.64 | 1.75 | 1.65 | 96 | 1014.6 |
| 20260901151704 | 15 | 235 | 4.8 | 4.8 | 0.66 | 1.75 | 1.65 | 96 | 1014.7 |
| 20260901151204 | 15 | 247 | 4.8 | 9.7 | 0.66 | 1.75 | 1.65 | 96 | 1014.8 |
| 20260901150704 | 15 | 239 | 3.2 | 11.3 | 0.69 | 1.75 | 1.65 | 96 | 1014.7 |
| 20260901150204 | 15 | 248 | 6.4 | 14.5 | 0.74 | 1.75 | 1.65 | 96 | 1015.0 |
| 20260901145704 | 15 | 242 | 8.0 | 14.5 | 0.79 | 1.75 | 1.63 | 96 | 1015.0 |
| 20260901145204 | 15 | 250 | 4.8 | 11.3 | 0.79 | 1.68 | 1.55 | 96 | 1014.9 |
| 20260901144704 | 15 | 284 | 4.8 | 11.3 | 0.69 | 1.55 | 1.42 | 96 | 1015.0 |
| 20260901144204 | 15 | 254 | 4.8 | 11.3 | 0.51 | 1.37 | 1.24 | 96 | 1014.9 |
| 20260901143703 | 15 | 245 | 4.8 | 9.7 | 0.38 | 1.19 | 1.09 | 96 | 1015.1 |
| 20260901143204 | 15 | 252 | 6.4 | 11.3 | 0.33 | 1.12 | 0.99 | 96 | 1015.0 |
| 20260901142704 | 15 | 243 | 4.8 | 11.3 | 0.38 | 1.12 | 0.99 | 96 | 1014.9 |
| 20260901142204 | 15 | 272 | 6.4 | 14.5 | 0.43 | 1.12 | 0.99 | 96 | 1015.0 |
| 20260901141704 | 15 | 264 | 4.8 | 12.9 | 0.46 | 1.09 | 0.99 | 96 | 1014.9 |
| 20260901141204 | 14 | 268 | 8.0 | 16.1 | 0.48 | 1.09 | 0.99 | 95 | 1014.9 |
| 20260901140704 | 14 | 246 | 6.4 | 9.7 | 0.51 | 1.09 | 0.97 | 95 | 1015.0 |
| 20260901140204 | 14 | 256 | 4.8 | 9.7 | 0.53 | 1.02 | 0.89 | 95 | 1015.0 |
| 20260901135704 | 15 | 234 | 4.8 | 11.3 | 0.46 | 0.94 | 0.81 | 95 | 1015.1 |
| 20260901135203 | 15 | 239 | 8.0 | 14.5 | 0.43 | 0.89 | 0.79 | 95 | 1015.0 |
| 20260901134704 | 15 | 256 | 9.7 | 16.1 | 0.38 | 0.86 | 0.74 | 95 | 1015.2 |
| 20260901134204 | 15 | 262 | 9.7 | 19.3 | 0.36 | 0.84 | 0.71 | 95 | 1015.0 |
| 20260901133704 | 15 | 269 | 9.7 | 16.1 | 0.33 | 0.81 | 0.71 | 95 | 1015.0 |
| 20260901133204 | 15 | 255 | 11.3 | 19.3 | 0.30 | 0.79 | 0.66 | 95 | 1015.1 |
| 20260901132704 | 15 | 251 | 11.3 | 20.9 | 0.25 | 0.74 | 0.61 | 95 | 1015.0 |
| 20260901132204 | 15 | 271 | 11.3 | 19.3 | 0.20 | 0.69 | 0.56 | 95 | 1015.0 |
| 20260901131703 | 15 | 251 | 14.5 | 24.1 | 0.15 | 0.64 | 0.51 | 94 | 1015.1 |
| 20260901122704 | 16 | 251 | 11.3 | 24.1 | 0.00 | 0.48 | 0.36 | 94 | 1014.7 |
| 20260901121703 | 16 | 232 | 20.9 | 32.2 | 0.00 | 0.48 | 0.36 | 94 | 1014.5 |
| 20260901121204 | 16 | 217 | 20.9 | 24.1 | 0.00 | 0.48 | 0.36 | 95 | 1014.4 |
| 20260901120703 | 16 | 220 | 20.9 | 24.1 | 0.00 | 0.48 | 0.36 | 95 | 1014.5 |
| 20260901120204 | 16 | 0 | 14.5 | 20.9 | 0.00 | 0.48 | 0.36 | 95 | 1014.5 |
| 20260901115704 | 16 | 243 | 14.5 | 25.7 | 0.00 | 0.48 | 0.36 | 95 | 1014.5 |
| 20260901114704 | 16 | 314 | 16.1 | 24.1 | 0.00 | 0.48 | 0.36 | 96 | 1014.5 |
| 20260901114204 | 16 | 254 | 11.3 | 20.9 | 0.00 | 0.48 | 0.36 | 96 | 1014.5 |
| 20260901113703 | 16 | 251 | 14.5 | 24.1 | 0.00 | 0.48 | 0.36 | 96 | 1014.4 |
| 20260901113204 | 16 | 314 | 12.9 | 20.9 | 0.00 | 0.48 | 0.36 | 96 | 1014.5 |
| 20260901112704 | 16 | 248 | 11.3 | 19.3 | 0.00 | 0.48 | 0.36 | 96 | 1014.4 |
| 20260901112204 | 16 | 244 | 9.7 | 16.1 | 0.00 | 0.48 | 0.36 | 96 | 1014.4 |
| 20260901111704 | 16 | 265 | 11.3 | 22.5 | 0.00 | 0.48 | 0.36 | 96 | 1014.4 |
| 20260901111204 | 16 | 262 | 11.3 | 22.5 | 0.00 | 0.48 | 0.36 | 96 | 1014.4 |
| 20260901110704 | 16 | 223 | 14.5 | 22.5 | 0.00 | 0.48 | 0.36 | 96 | 1014.4 |
| 20260901105204 | 16 | 248 | 9.7 | 14.5 | 0.00 | 0.48 | 0.36 | 96 | 1014.3 |
| 20260901104204 | 16 | 276 | 8.0 | 19.3 | 0.00 | 0.48 | 0.36 | 96 | 1014.5 |
| 20260901103204 | 16 | 237 | 11.3 | 20.9 | 0.03 | 0.48 | 0.36 | 96 | 1014.4 |
| 20260901102203 | 16 | 252 | 4.8 | 16.1 | 0.03 | 0.48 | 0.36 | 96 | 1014.5 |
| 20260901101703 | 15 | 227 | 9.7 | 16.1 | 0.03 | 0.48 | 0.36 | 96 | 1014.5 |
| 20260901101204 | 15 | 254 | 11.3 | 19.3 | 0.03 | 0.48 | 0.36 | 96 | 1014.4 |
| 20260901100704 | 15 | 248 | 12.9 | 22.5 | 0.03 | 0.48 | 0.36 | 96 | 1014.6 |
| 20260901100205 | 15 | 287 | 14.5 | 22.5 | 0.03 | 0.48 | 0.36 | 96 | 1014.5 |
| 20260901095704 | 15 | 249 | 9.7 | 16.1 | 0.03 | 0.48 | 0.36 | 96 | 1014.6 |
| 20260901095204 | 15 | 253 | 11.3 | 22.5 | 0.05 | 0.48 | 0.36 | 96 | 1014.5 |
| 20260901094204 | 15 | 237 | 12.9 | 20.9 | 0.05 | 0.48 | 0.36 | 96 | 1014.4 |
| 20260901093703 | 15 | 271 | 16.1 | 25.7 | 0.05 | 0.46 | 0.33 | 96 | 1014.3 |
| 20260901093204 | 15 | 241 | 14.5 | 25.7 | 0.05 | 0.46 | 0.33 | 96 | 1014.4 |
| 20260901092704 | 15 | 256 | 11.3 | 22.5 | 0.05 | 0.46 | 0.33 | 96 | 1014.3 |
| 20260901092204 | 15 | 269 | 9.7 | 22.5 | 0.05 | 0.46 | 0.33 | 96 | 1014.3 |
| 20260901091704 | 15 | 260 | 12.9 | 22.5 | 0.05 | 0.46 | 0.33 | 96 | 1014.3 |
| 20260901090204 | 15 | 233 | 11.3 | 19.3 | 0.05 | 0.46 | 0.33 | 96 | 1014.3 |
| 20260901085703 | 15 | 247 | 12.9 | 25.7 | 0.05 | 0.46 | 0.33 | 96 | 1014.3 |
| 20260901084703 | 15 | 252 | 11.3 | 20.9 | 0.00 | 0.43 | 0.30 | 96 | 1014.2 |
| 20260901083704 | 15 | 250 | 12.9 | 20.9 | 0.00 | 0.43 | 0.30 | 96 | 1014.0 |
| 20260901083204 | 15 | 220 | 9.7 | 16.1 | 0.00 | 0.43 | 0.30 | 96 | 1014.0 |
| 20260901082704 | 15 | 238 | 12.9 | 19.3 | 0.00 | 0.43 | 0.30 | 96 | 1014.1 |
| 20260901082204 | 15 | 238 | 11.3 | 19.3 | 0.00 | 0.43 | 0.30 | 96 | 1013.9 |
| 20260901081704 | 15 | 228 | 9.7 | 19.3 | 0.00 | 0.43 | 0.30 | 96 | 1013.9 |
| 20260901081203 | 15 | 261 | 9.7 | 19.3 | 0.00 | 0.43 | 0.30 | 96 | 1013.9 |
| 20260901080704 | 15 | 232 | 11.3 | 19.3 | 0.00 | 0.43 | 0.30 | 96 | 1013.9 |
| 20260901080204 | 15 | 252 | 9.7 | 22.5 | 0.00 | 0.43 | 0.30 | 96 | 1013.9 |
| 20260901075704 | 15 | 260 | 11.3 | 19.3 | 0.00 | 0.43 | 0.30 | 96 | 1013.9 |
| 20260901075204 | 15 | 233 | 14.5 | 19.3 | 0.00 | 0.43 | 0.30 | 96 | 1013.9 |
| 20260901074704 | 15 | 239 | 11.3 | 22.5 | 0.03 | 0.43 | 0.30 | 96 | 1013.8 |
| 20260901074204 | 15 | 239 | 8.0 | 19.3 | 0.03 | 0.43 | 0.30 | 96 | 1013.9 |
| 20260901073704 | 15 | 216 | 11.3 | 19.3 | 0.05 | 0.43 | 0.30 | 96 | 1013.8 |
| 20260901073204 | 15 | 233 | 9.7 | 20.9 | 0.05 | 0.43 | 0.30 | 96 | 1013.9 |
| 20260901072703 | 14 | 217 | 8.0 | 11.3 | 0.05 | 0.43 | 0.30 | 96 | 1013.7 |
| 20260901072204 | 14 | 227 | 6.4 | 14.5 | 0.05 | 0.43 | 0.30 | 96 | 1013.7 |
| 20260901071704 | 14 | 230 | 3.2 | 11.3 | 0.08 | 0.43 | 0.30 | 96 | 1013.8 |
| 20260901071204 | 14 | 215 | 8.0 | 11.3 | 0.08 | 0.43 | 0.30 | 96 | 1013.9 |
| 20260901070703 | 14 | 212 | 4.8 | 8.0 | 0.08 | 0.43 | 0.30 | 95 | 1013.9 |
| 20260901070204 | 14 | 251 | 3.2 | 8.0 | 0.13 | 0.43 | 0.30 | 95 | 1014.0 |
| 20260901065204 | 14 | 234 | 6.4 | 11.3 | 0.25 | 0.43 | 0.30 | 95 | 1014.1 |
| 20260901064704 | 14 | 255 | 6.4 | 12.9 | 0.23 | 0.43 | 0.28 | 95 | 1014.2 |
| 20260901064203 | 14 | 251 | 6.4 | 12.9 | 0.25 | 0.43 | 0.28 | 95 | 1014.1 |
| 20260901063705 | 14 | 248 | 8.0 | 14.5 | 0.23 | 0.41 | 0.25 | 95 | 1014.1 |
| 20260901063204 | 14 | 232 | 9.7 | 19.3 | 0.23 | 0.41 | 0.25 | 95 | 1014.2 |
| 20260901062203 | 14 | 260 | 6.4 | 16.1 | 0.23 | 0.38 | 0.23 | 95 | 1014.1 |
| 20260901061704 | 14 | 255 | 9.7 | 19.3 | 0.20 | 0.36 | 0.23 | 95 | 1014.2 |
| 20260901061204 | 14 | 248 | 6.4 | 12.9 | 0.20 | 0.36 | 0.23 | 95 | 1014.1 |
| 20260901060703 | 14 | 248 | 8.0 | 14.5 | 0.20 | 0.36 | 0.23 | 94 | 1014.0 |
| 20260901055703 | 14 | 262 | 8.0 | 19.3 | 0.08 | 0.23 | 0.10 | 94 | 1014.1 |
| 20260901054704 | 15 | 235 | 8.0 | 19.3 | 0.03 | 0.18 | 0.05 | 94 | 1014.0 |
| 20260901054204 | 15 | 242 | 11.3 | 19.3 | 0.00 | 0.15 | 0.03 | 94 | 1013.9 |
| 20260901053203 | 15 | 234 | 12.9 | 24.1 | 0.00 | 0.18 | 0.03 | 94 | 1013.8 |
| 20260901052704 | 14 | 225 | 12.9 | 19.3 | 0.00 | 0.18 | 0.03 | 94 | 1013.8 |
| 20260901052204 | 15 | 204 | 11.3 | 22.5 | 0.00 | 0.18 | 0.03 | 94 | 1013.8 |
| 20260901051704 | 14 | 257 | 11.3 | 16.1 | 0.00 | 0.18 | 0.03 | 94 | 1013.8 |
| 20260901051203 | 14 | 237 | 9.7 | 19.3 | 0.00 | 0.18 | 0.03 | 94 | 1013.8 |
| 20260901050704 | 14 | 243 | 12.9 | 19.3 | 0.00 | 0.18 | 0.03 | 94 | 1013.8 |
| 20260901050203 | 14 | 248 | 9.7 | 20.9 | 0.00 | 0.18 | 0.03 | 94 | 1013.8 |
| 20260901045203 | 14 | 230 | 11.3 | 19.3 | 0.00 | 0.18 | 0.03 | 94 | 1013.8 |
| 20260901044703 | 14 | 251 | 9.7 | 19.3 | 0.00 | 0.18 | 0.03 | 94 | 1013.8 |
| 20260901044204 | 14 | 242 | 11.3 | 20.9 | 0.00 | 0.18 | 0.03 | 94 | 1013.7 |
| 20260901043703 | 14 | 254 | 14.5 | 20.9 | 0.00 | 0.18 | 0.03 | 94 | 1013.7 |
| 20260901043204 | 14 | 238 | 11.3 | 22.5 | 0.00 | 0.18 | 0.03 | 94 | 1013.7 |
| 20260901042704 | 14 | 244 | 9.7 | 19.3 | 0.00 | 0.18 | 0.03 | 94 | 1013.7 |
| 20260901042203 | 14 | 242 | 12.9 | 22.5 | 0.00 | 0.18 | 0.03 | 94 | 1013.7 |
| 20260901041704 | 14 | 252 | 9.7 | 19.3 | 0.03 | 0.18 | 0.03 | 94 | 1013.7 |
| 20260901041204 | 14 | 257 | 9.7 | 19.3 | 0.03 | 0.18 | 0.03 | 94 | 1013.8 |
| 20260901040204 | 13 | 255 | 9.7 | 16.1 | 0.03 | 0.18 | 0.03 | 94 | 1013.8 |
| 20260901035704 | 14 | 226 | 9.7 | 19.3 | 0.03 | 0.18 | 0.03 | 94 | 1013.9 |
| 20260901035203 | 14 | 221 | 9.7 | 12.9 | 0.03 | 0.18 | 0.03 | 94 | 1014.0 |
| 20260901034703 | 14 | 234 | 8.0 | 12.9 | 0.03 | 0.18 | 0.03 | 94 | 1014.0 |
| 20260901034204 | 14 | 226 | 9.7 | 16.1 | 0.03 | 0.18 | 0.03 | 94 | 1013.9 |
| 20260901033704 | 14 | 247 | 9.7 | 14.5 | 0.03 | 0.18 | 0.03 | 94 | 1013.8 |
| 20260901032704 | 13 | 234 | 11.3 | 19.3 | 0.03 | 0.18 | 0.03 | 94 | 1013.8 |
| 20260901032204 | 13 | 255 | 9.7 | 19.3 | 0.03 | 0.18 | 0.03 | 94 | 1013.8 |
| 20260901031703 | 13 | 241 | 8.0 | 12.9 | 0.00 | 0.15 | 0.00 | 94 | 1013.7 |
| 20260901031203 | 13 | 240 | 8.0 | 14.5 | 0.00 | 0.15 | 0.00 | 93 | 1013.8 |
| 20260901030203 | 14 | 220 | 9.7 | 16.1 | 0.00 | 0.15 | 0.00 | 93 | 1013.7 |
| 20260901025704 | 14 | 256 | 9.7 | 19.3 | 0.00 | 0.15 | 0.00 | 93 | 1013.8 |
| 20260901025204 | 14 | 239 | 9.7 | 19.3 | 0.00 | 0.15 | 0.00 | 93 | 1013.8 |
| 20260901024704 | 14 | 220 | 12.9 | 19.3 | 0.00 | 0.15 | 0.00 | 93 | 1013.8 |
| 20260901024203 | 14 | 231 | 11.3 | 22.5 | 0.00 | 0.15 | 0.00 | 93 | 1013.8 |
| 20260901023704 | 14 | 235 | 11.3 | 24.1 | 0.00 | 0.15 | 0.00 | 93 | 1013.8 |
| 20260901023204 | 14 | 245 | 14.5 | 22.5 | 0.00 | 0.15 | 0.00 | 93 | 1013.8 |
| 20260901022704 | 14 | 243 | 9.7 | 20.9 | 0.00 | 0.15 | 0.00 | 93 | 1013.8 |
| 20260901022204 | 14 | 241 | 14.5 | 27.4 | 0.00 | 0.15 | 0.00 | 93 | 1013.9 |
| 20260901021703 | 14 | 245 | 11.3 | 27.4 | 0.00 | 0.15 | 0.00 | 93 | 1013.9 |
| 20260901021204 | 14 | 237 | 12.9 | 24.1 | 0.00 | 0.15 | 0.00 | 93 | 1013.9 |
| 20260901020704 | 14 | 232 | 11.3 | 20.9 | 0.00 | 0.15 | 0.00 | 94 | 1013.9 |
| 20260901015703 | 14 | 221 | 11.3 | 19.3 | 0.00 | 0.15 | 0.00 | 93 | 1013.9 |
| 20260901015204 | 14 | 269 | 11.3 | 22.5 | 0.00 | 0.15 | 0.00 | 94 | 1014.0 |
| 20260901014704 | 14 | 236 | 8.0 | 19.3 | 0.00 | 0.15 | 0.00 | 94 | 1014.1 |
| 20260901014203 | 14 | 217 | 9.7 | 19.3 | 0.00 | 0.15 | 0.00 | 94 | 1014.2 |
| 20260901013703 | 14 | 230 | 9.7 | 16.1 | 0.00 | 0.15 | 0.00 | 94 | 1014.2 |
| 20260901012704 | 14 | 223 | 8.0 | 19.3 | 0.00 | 0.15 | 0.00 | 94 | 1014.3 |
| 20260901012204 | 14 | 228 | 9.7 | 19.3 | 0.00 | 0.15 | 0.00 | 94 | 1014.3 |
| 20260901011704 | 14 | 221 | 9.7 | 20.9 | 0.00 | 0.15 | 0.00 | 94 | 1014.3 |
| 20260901011204 | 13 | 233 | 11.3 | 19.3 | 0.00 | 0.15 | 0.00 | 94 | 1014.4 |
| 20260901010704 | 13 | 240 | 9.7 | 19.3 | 0.00 | 0.15 | 0.00 | 94 | 1014.4 |
| 20260901005704 | 13 | 258 | 9.7 | 19.3 | 0.00 | 0.15 | 0.00 | 94 | 1014.4 |
| 20260901005203 | 13 | 266 | 9.7 | 19.3 | 0.00 | 0.15 | 0.00 | 94 | 1014.4 |
| 20260901004704 | 13 | 231 | 8.0 | 16.1 | 0.00 | 0.15 | 0.00 | 94 | 1014.4 |
| 20260901004204 | 13 | 229 | 8.0 | 14.5 | 0.00 | 0.15 | 0.00 | 94 | 1014.4 |
| 20260901003704 | 13 | 238 | 8.0 | 19.3 | 0.00 | 0.15 | 0.00 | 94 | 1014.4 |
| 20260901002704 | 13 | 226 | 8.0 | 14.5 | 0.00 | 0.15 | 0.00 | 94 | 1014.5 |
| 20260901001704 | 13 | 234 | 8.0 | 14.5 | 0.00 | 0.15 | 0.00 | 94 | 1014.6 |
| 20260901001204 | 13 | 239 | 8.0 | 12.9 | 0.00 | 0.15 | 0.00 | 94 | 1014.5 |
| 20260901000704 | 13 | 234 | 9.7 | 16.1 | 0.00 | 0.15 | 0.00 | 94 | 1014.6 |
| 20260901000204 | 13 | 225 | 8.0 | 14.5 | 0.00 | 0.15 | 0.00 | 94 | 1014.7 |
| 20260831235703 | 13 | 223 | 8.0 | 16.1 | 0.00 | 0.15 | 0.00 | 94 | 1014.6 |
| 20260831234704 | 13 | 241 | 4.8 | 9.7 | 0.00 | 0.15 | 0.00 | 94 | 1014.8 |
| 20260831234204 | 13 | 236 | 8.0 | 14.5 | 0.00 | 0.15 | 0.00 | 94 | 1014.9 |
| 20260831232704 | 13 | 227 | 9.7 | 14.5 | 0.00 | 0.15 | 0.00 | 94 | 1015.1 |